Location: Allgood Post Office
(33.9123°N, 86.5097°W)
Time: 06:55:55
(UTC+00:00)

Daily predictions for brighter satellites

Satellite Brightness Start Highest point End
(mag) Time Altitude Azimuth Time Altitude Azimuth Time Altitude Azimuth
Meteor 1-11 4.3 23:13:39 10° N 23:19:22 68° E 23:25:07 10° SSE
Envisat 3.6 23:14:59 10° S 23:20:00 64° W 23:25:02 10° NNW
Radarsat Rocket 4.3 23:14:10 10° S 23:20:26 76° WSW 23:26:18 10° NNW
Cosmos 1726 Rocket 3.5 23:17:27 10° S 23:21:44 70° E 23:26:05 10° NNE
CZ-4B R/B 1.2 23:18:36 10° NNE 23:21:46 88° WNW 23:24:51 10° SSW
SMAP 3.1 23:19:33 10° SSE 23:24:11 88° WSW 23:28:52 10° NNW
Aureole 3 3.4 23:21:36 10° SSE 23:24:44 35° E 23:27:34 10° NNE
Cosmos 1939 Rocket 3.9 23:21:54 10° SE 23:25:10 25° ENE 23:28:24 10° NNE
Cosmos 1328 4.3 23:22:56 10° NNW 23:26:51 64° W 23:30:44 10° S
Aureole 3 Rocket 3.3 23:24:26 10° SSE 23:27:46 41° E 23:32:10 10° NNE
Cosmos 2228 3.4 23:23:34 10° SSW 23:27:46 68° W 23:32:01 10° N
Cosmos 1758 Rocket 3.9 23:27:27 10° NNW 23:31:49 70° W 23:36:07 10° S
Milstar 3 3.3 23:24:52 10° WSW 23:32:18 53° S 23:38:48 10° E
Cosmos 1689 Rocket 2.5 23:29:53 10° NNE 23:32:36 37° E 23:35:18 10° S
Helios 1A Rocket 4.1 23:30:37 10° ESE 23:33:45 21° ENE 23:36:53 10° NNE
CZ-2C R/B 4.4 23:29:39 10° ESE 23:33:53 21° ENE 23:38:03 10° NNE
OAO 1 Rocket 4.5 23:30:48 10° WSW 23:36:10 84° SSE 23:41:06 12° E
Cosmos 1606 Rocket 4.4 23:33:13 10° SSW 23:37:29 56° W 23:41:48 10° N
Meteor 2-8 Rocket 4.5 23:33:19 10° S 23:39:16 61° E 23:45:18 10° NNE
Feng Yun 1-1 Rocket 4.4 23:34:18 10° SSE 23:40:02 59° ENE 23:45:51 10° N
Cosmos 1400 Rocket 2.8 23:39:02 10° S 23:43:08 80° E 23:47:15 10° N
Meteor 2-10 Rocket 4.1 23:38:52 10° SSE 23:43:45 36° E 23:48:27 10° NNE
Timation 2 Rocket 4.2 23:37:41 10° NNW 23:44:17 60° ENE 23:51:02 10° SE
Okean-O 3.5 23:41:45 10° SE 23:45:28 27° ENE 23:49:12 10° NNE
Meteor 2-21 Rocket 4.5 23:40:14 10° N 23:46:25 89° E 23:52:30 10° S
Cosmos 2219 3.7 23:41:29 10° N 23:46:51 39° ENE 23:52:10 10° SE
CZ-4 R/B 2.3 23:46:31 10° SE 23:49:43 25° ENE 23:52:53 10° NNE
USA 281 3.6 23:44:24 10° SSE 23:50:55 70° WSW 23:57:29 10° NNW
SKYMED 2 3.5 23:47:50 10° NNE 23:52:11 88° E 23:56:31 10° SSW
Cosmos 1992 Rocket 4.2 23:47:21 10° S 23:52:18 46° ESE 23:57:16 10° NNE
OAO 2 Rocket 3.2 23:48:50 10° WSW 23:53:51 88° S 23:57:25 19° E
Cosmos 1892 3.5 23:51:02 10° NNE 23:54:29 30° E 23:57:55 10° SE
Cosmos 220 Rocket 4.1 23:50:58 10° S 23:55:08 52° ESE 23:59:24 10° NNE
Cosmos 1408 4.1 23:53:14 10° NNE 23:54:58 17° ENE 23:54:58 17° ENE
